Tracking 30923 objects as of 1-Jul-2025
HD Live streaming from Space Station
objects crossing your sky now

STARLINK-32799

Track STARLINK-32799 now!
10-day predictions
STARLINK-32799 is classified as:


NORAD ID: 62847
Int'l Code: 2025-019U
Perigee: 489.2 km
Apogee: 491.1 km
Inclination: 43.0 °
Period: 94.3 minutes
Semi major axis: 6861 km
RCS: Unknown
Launch date: January 27, 2025
Source: United States (US)
Launch site: AIR FORCE EASTERN TEST RANGE (AFETR)
Your satellite tracking list
LUCH (OLYMP)
Track 1 satellite(s)




NASA's NSSDC Master Catalog

Two Line Element Set (TLE):
1 62847U 25019U   25181.76069181  .00015941  00000-0  58722-3 0  9996
2 62847  43.0019  71.5675 0001415 272.2647  87.8042 15.27597676 24693
Source of the keplerian elements: AFSPC